Time,TemperatureF,DewpointF,PressureIn,WindDirection,WindDirectionDegrees,WindSpeedMPH,WindSpeedGustMPH,Humidity,HourlyPrecipIn,Conditions,Clouds,dailyrainin,SoftwareType,DateUTC
2011-07-24 00:03:00,72.3,41.5,30.00,WNW,292,0.0,0.0,33,0.00,,,0.00,open2300-1.11,2011-07-24 06:03:00,
2011-07-24 00:13:00,71.8,41.0,29.99,WNW,292,0.0,0.0,33,0.00,,,0.00,open2300-1.11,2011-07-24 06:13:00,
2011-07-24 00:23:00,71.2,40.5,30.00,WNW,292,0.0,0.0,33,0.00,,,0.00,open2300-1.11,2011-07-24 06:23:00,
2011-07-24 00:33:00,70.9,40.2,30.00,WNW,292,0.0,0.0,33,0.00,,,0.00,open2300-1.11,2011-07-24 06:33:00,
2011-07-24 00:43:00,70.3,39.7,29.99,WNW,292,0.0,0.0,33,0.00,,,0.00,open2300-1.11,2011-07-24 06:43:00,
2011-07-24 00:53:00,70.5,39.9,30.00,WNW,292,0.0,0.0,33,0.00,,,0.00,open2300-1.11,2011-07-24 06:53:00,
2011-07-24 01:03:00,70.5,39.2,30.00,NNW,337,0.0,0.0,32,0.00,,,0.00,open2300-1.11,2011-07-24 07:03:00,
2011-07-24 01:13:00,70.3,39.0,30.00,NNW,337,0.0,0.0,32,0.00,,,0.00,open2300-1.11,2011-07-24 07:13:00,
2011-07-24 01:23:00,70.0,39.4,30.00,NNW,337,0.0,0.0,33,0.00,,,0.00,open2300-1.11,2011-07-24 07:23:00,
2011-07-24 01:33:00,69.4,39.7,30.00,NNW,337,0.0,0.0,34,0.00,,,0.00,open2300-1.11,2011-07-24 07:33:00,
2011-07-24 01:43:00,69.1,39.3,30.00,NNW,337,0.0,0.0,34,0.00,,,0.00,open2300-1.11,2011-07-24 07:43:00,
2011-07-24 01:53:00,69.1,38.6,30.00,NNW,337,0.0,0.0,33,0.00,,,0.00,open2300-1.11,2011-07-24 07:53:00,
2011-07-24 02:03:00,68.9,38.4,30.01,ESE,112,0.0,0.0,33,0.00,,,0.00,open2300-1.11,2011-07-24 08:03:00,
2011-07-24 02:13:00,69.3,38.0,30.00,ESE,112,0.0,2.5,32,0.00,,,0.00,open2300-1.11,2011-07-24 08:13:00,
2011-07-24 02:23:00,69.6,38.3,30.00,ESE,112,0.0,0.0,32,0.00,,,0.00,open2300-1.11,2011-07-24 08:23:00,
2011-07-24 02:33:00,70.3,39.0,30.00,SE,135,0.0,3.1,32,0.00,,,0.00,open2300-1.11,2011-07-24 08:33:00,
2011-07-24 02:43:00,70.9,39.5,30.00,East,90,0.0,0.0,32,0.00,,,0.00,open2300-1.11,2011-07-24 08:43:00,
2011-07-24 02:53:00,71.2,39.8,30.00,SE,135,0.0,0.0,32,0.00,,,0.00,open2300-1.11,2011-07-24 08:53:00,
2011-07-24 03:03:00,71.4,39.2,29.99,East,90,0.2,3.8,31,0.00,,,0.00,open2300-1.11,2011-07-24 09:03:00,
2011-07-24 03:13:00,71.4,40.0,30.00,East,90,0.0,4.7,32,0.00,,,0.00,open2300-1.11,2011-07-24 09:13:00,
2011-07-24 03:23:00,71.4,40.0,30.00,East,90,0.0,0.0,32,0.00,,,0.00,open2300-1.11,2011-07-24 09:23:00,
2011-07-24 03:33:00,71.2,39.8,30.00,East,90,2.5,2.5,32,0.00,,,0.00,open2300-1.11,2011-07-24 09:33:00,
2011-07-24 03:43:00,71.2,39.8,30.00,East,90,0.0,2.5,32,0.00,,,0.00,open2300-1.11,2011-07-24 09:43:00,
2011-07-24 03:53:00,70.9,39.5,30.00,SE,135,0.0,0.0,32,0.00,,,0.00,open2300-1.11,2011-07-24 09:53:00,
2011-07-24 04:03:00,70.9,39.5,30.01,SSE,157,0.0,0.0,32,0.00,,,0.00,open2300-1.11,2011-07-24 10:03:00,
2011-07-24 04:13:00,70.5,39.2,30.01,SW,225,0.0,0.0,32,0.00,,,0.00,open2300-1.11,2011-07-24 10:13:00,
2011-07-24 04:23:00,70.3,39.7,30.01,WSW,247,0.0,0.0,33,0.00,,,0.00,open2300-1.11,2011-07-24 10:23:00,
2011-07-24 04:33:00,70.0,40.2,30.01,East,90,6.7,7.2,34,0.00,,,0.00,open2300-1.11,2011-07-24 10:33:00,
2011-07-24 04:43:00,70.5,39.9,30.01,SE,135,2.5,8.3,33,0.00,,,0.00,open2300-1.11,2011-07-24 10:43:00,
2011-07-24 04:53:00,70.9,41.0,30.01,East,90,6.9,7.6,34,0.00,,,0.00,open2300-1.11,2011-07-24 10:53:00,
2011-07-24 05:03:00,71.4,40.7,30.02,SW,225,0.0,6.9,33,0.00,,,0.00,open2300-1.11,2011-07-24 11:03:00,
2011-07-24 05:13:00,71.2,40.5,30.02,NE,45,0.0,0.0,33,0.00,,,0.00,open2300-1.11,2011-07-24 11:13:00,
2011-07-24 05:23:00,70.7,40.1,30.02,East,90,0.0,2.0,33,0.00,,,0.00,open2300-1.11,2011-07-24 11:23:00,
2011-07-24 05:33:00,70.2,40.3,30.03,SE,135,0.0,0.0,34,0.00,,,0.00,open2300-1.11,2011-07-24 11:33:00,
2011-07-24 05:43:00,69.6,39.8,30.03,ESE,112,0.0,0.0,34,0.00,,,0.00,open2300-1.11,2011-07-24 11:43:00,
2011-07-24 05:53:00,69.3,39.5,30.04,ENE,67,0.0,0.0,34,0.00,,,0.00,open2300-1.11,2011-07-24 11:53:00,
2011-07-24 06:03:00,69.1,40.1,30.04,NE,45,0.0,0.0,35,0.00,,,0.00,open2300-1.11,2011-07-24 12:03:00,
2011-07-24 06:13:00,69.4,41.1,30.04,ENE,67,7.2,8.1,36,0.00,,,0.00,open2300-1.11,2011-07-24 12:13:00,
2011-07-24 06:23:00,69.6,41.3,30.04,ESE,112,4.9,7.2,36,0.00,,,0.00,open2300-1.11,2011-07-24 12:23:00,
2011-07-24 06:33:00,69.6,41.3,30.04,East,90,6.3,10.5,36,0.00,,,0.00,open2300-1.11,2011-07-24 12:33:00,
2011-07-24 06:43:00,69.6,41.3,30.05,East,90,6.0,6.3,36,0.00,,,0.00,open2300-1.11,2011-07-24 12:43:00,
2011-07-24 06:53:00,69.4,41.1,30.06,ENE,67,0.0,6.7,36,0.00,,,0.00,open2300-1.11,2011-07-24 12:53:00,
2011-07-24 07:03:00,69.1,40.8,30.06,East,90,2.0,6.3,36,0.00,,,0.00,open2300-1.11,2011-07-24 13:03:00,
2011-07-24 07:13:00,69.1,40.8,30.06,East,90,0.0,6.0,36,0.00,,,0.00,open2300-1.11,2011-07-24 13:13:00,
2011-07-24 07:23:00,69.4,41.9,30.06,East,90,8.1,8.1,37,0.00,,,0.00,open2300-1.11,2011-07-24 13:23:00,
2011-07-24 07:33:00,69.6,42.0,30.06,East,90,7.2,8.1,37,0.00,,,0.00,open2300-1.11,2011-07-24 13:33:00,
2011-07-24 07:43:00,70.2,42.5,30.07,East,90,3.4,9.6,37,0.00,,,0.00,open2300-1.11,2011-07-24 13:43:00,
2011-07-24 07:53:00,70.3,42.7,30.07,ENE,67,7.6,7.6,37,0.00,,,0.00,open2300-1.11,2011-07-24 13:53:00,
2011-07-24 08:03:00,70.9,43.2,30.08,ESE,112,10.3,10.7,37,0.00,,,0.00,open2300-1.11,2011-07-24 14:03:00,
2011-07-24 08:13:00,71.8,43.2,30.08,East,90,5.8,12.1,36,0.00,,,0.00,open2300-1.11,2011-07-24 14:13:00,
2011-07-24 08:23:00,72.5,43.9,30.08,ENE,67,0.0,7.8,36,0.00,,,0.00,open2300-1.11,2011-07-24 14:23:00,
2011-07-24 08:33:00,73.4,45.4,30.08,ENE,67,0.0,1.1,37,0.00,,,0.00,open2300-1.11,2011-07-24 14:33:00,
2011-07-24 08:43:00,74.7,45.8,30.07,East,90,0.0,6.5,36,0.00,,,0.00,open2300-1.11,2011-07-24 14:43:00,
2011-07-24 08:53:00,75.4,46.4,30.08,East,90,4.0,6.0,36,0.00,,,0.00,open2300-1.11,2011-07-24 14:53:00,
2011-07-24 09:03:00,76.6,47.5,30.08,East,90,2.2,6.0,36,0.00,,,0.00,open2300-1.11,2011-07-24 15:03:00,
2011-07-24 09:13:00,77.7,48.5,30.08,ENE,67,0.0,6.3,36,0.00,,,0.00,open2300-1.11,2011-07-24 15:13:00,
2011-07-24 09:23:00,78.6,48.5,30.07,East,90,0.0,4.2,35,0.00,,,0.00,open2300-1.11,2011-07-24 15:23:00,
2011-07-24 09:33:00,79.5,49.3,30.08,East,90,4.7,7.6,35,0.00,,,0.00,open2300-1.11,2011-07-24 15:33:00,
2011-07-24 09:43:00,80.4,49.3,30.08,East,90,5.6,5.6,34,0.00,,,0.00,open2300-1.11,2011-07-24 15:43:00,
2011-07-24 09:53:00,81.1,50.0,30.07,East,90,0.0,5.6,34,0.00,,,0.00,open2300-1.11,2011-07-24 15:53:00,
2011-07-24 10:03:00,81.9,49.8,30.08,ENE,67,0.0,0.0,33,0.00,,,0.00,open2300-1.11,2011-07-24 16:03:00,
2011-07-24 10:13:00,82.8,50.5,30.07,SSE,157,0.0,2.9,33,0.00,,,0.00,open2300-1.11,2011-07-24 16:13:00,
2011-07-24 10:23:00,83.3,49.4,30.07,SE,135,0.0,3.4,31,0.00,,,0.00,open2300-1.11,2011-07-24 16:23:00,
2011-07-24 10:33:00,84.0,50.1,30.08,SE,135,0.0,0.7,31,0.00,,,0.00,open2300-1.11,2011-07-24 16:33:00,
2011-07-24 10:43:00,84.7,50.7,30.08,NNE,22,0.0,1.3,31,0.00,,,0.00,open2300-1.11,2011-07-24 16:43:00,
2011-07-24 10:53:00,85.6,50.8,30.07,SE,135,0.0,3.1,30,0.00,,,0.00,open2300-1.11,2011-07-24 16:53:00,
2011-07-24 11:03:00,86.2,50.1,30.07,SSE,157,0.0,6.9,29,0.00,,,0.00,open2300-1.11,2011-07-24 17:03:00,
2011-07-24 11:13:00,87.1,50.9,30.07,SE,135,0.0,0.0,29,0.00,,,0.00,open2300-1.11,2011-07-24 17:13:00,
2011-07-24 11:23:00,87.8,50.4,30.07,SE,135,0.0,0.0,28,0.00,,,0.00,open2300-1.11,2011-07-24 17:23:00,
2011-07-24 11:33:00,88.2,50.7,30.07,East,90,0.0,0.0,28,0.00,,,0.00,open2300-1.11,2011-07-24 17:33:00,
2011-07-24 11:43:00,88.5,50.0,30.07,NW,315,0.0,0.0,27,0.00,,,0.00,open2300-1.11,2011-07-24 17:43:00,
2011-07-24 11:53:00,89.4,50.7,30.06,North,0,0.0,1.1,27,0.00,,,0.00,open2300-1.11,2011-07-24 17:53:00,
2011-07-24 12:03:00,89.4,50.7,30.07,WSW,247,2.2,2.2,27,0.00,,,0.00,open2300-1.11,2011-07-24 18:03:00,
2011-07-24 12:13:00,90.0,50.1,30.06,West,270,0.0,2.2,26,0.00,,,0.00,open2300-1.11,2011-07-24 18:13:00,
2011-07-24 12:23:00,90.3,50.4,30.05,SW,225,0.0,0.0,26,0.00,,,0.00,open2300-1.11,2011-07-24 18:23:00,
2011-07-24 12:33:00,90.7,50.7,30.05,WSW,247,2.5,2.5,26,0.00,,,0.00,open2300-1.11,2011-07-24 18:33:00,
2011-07-24 12:43:00,91.2,51.2,30.05,NW,315,0.0,2.5,26,0.00,,,0.00,open2300-1.11,2011-07-24 18:43:00,
2011-07-24 12:53:00,91.6,50.4,30.05,West,270,0.0,5.6,25,0.00,,,0.00,open2300-1.11,2011-07-24 18:53:00,
2011-07-24 13:03:00,92.3,51.0,30.05,WSW,247,1.1,1.1,25,0.00,,,0.00,open2300-1.11,2011-07-24 19:03:00,
2011-07-24 13:13:00,92.8,50.3,30.04,WSW,247,0.9,5.4,24,0.00,,,0.00,open2300-1.11,2011-07-24 19:13:00,
2011-07-24 13:23:00,92.8,51.4,30.04,WSW,247,1.6,1.6,25,0.00,,,0.00,open2300-1.11,2011-07-24 19:23:00,
2011-07-24 13:33:00,93.0,50.5,30.05,WSW,247,4.2,4.2,24,0.00,,,0.00,open2300-1.11,2011-07-24 19:33:00,
2011-07-24 13:43:00,93.6,50.9,30.04,WSW,247,0.0,4.2,24,0.00,,,0.00,open2300-1.11,2011-07-24 19:43:00,
2011-07-24 13:53:00,93.9,51.2,30.04,WNW,292,0.0,2.0,24,0.00,,,0.00,open2300-1.11,2011-07-24 19:53:00,
2011-07-24 14:03:00,94.3,51.5,30.03,WNW,292,0.0,0.7,24,0.00,,,0.00,open2300-1.11,2011-07-24 20:03:00,
2011-07-24 14:13:00,94.3,51.5,30.03,WNW,292,0.0,1.6,24,0.00,,,0.00,open2300-1.11,2011-07-24 20:13:00,
2011-07-24 14:23:00,94.8,52.0,30.03,SSW,202,0.0,0.0,24,0.00,,,0.00,open2300-1.11,2011-07-24 20:23:00,
2011-07-24 14:33:00,95.2,52.3,30.02,NW,315,2.5,3.6,24,0.00,,,0.00,open2300-1.11,2011-07-24 20:33:00,
2011-07-24 14:43:00,95.5,51.5,30.02,WNW,292,5.1,5.1,23,0.00,,,0.00,open2300-1.11,2011-07-24 20:43:00,
2011-07-24 14:53:00,95.7,51.6,30.02,SW,225,0.0,5.1,23,0.00,,,0.00,open2300-1.11,2011-07-24 20:53:00,
2011-07-24 15:03:00,96.4,52.2,30.02,WSW,247,1.6,3.4,23,0.00,,,0.00,open2300-1.11,2011-07-24 21:03:00,
2011-07-24 15:13:00,97.0,50.5,30.01,SW,225,0.0,4.2,21,0.00,,,0.00,open2300-1.11,2011-07-24 21:13:00,
2011-07-24 15:23:00,96.6,50.2,30.00,WNW,292,0.0,0.0,21,0.00,,,0.00,open2300-1.11,2011-07-24 21:23:00,
2011-07-24 15:33:00,96.8,50.4,30.01,WNW,292,0.0,0.0,21,0.00,,,0.00,open2300-1.11,2011-07-24 21:33:00,
2011-07-24 15:43:00,97.2,49.6,30.00,WSW,247,0.0,4.5,20,0.00,,,0.00,open2300-1.11,2011-07-24 21:43:00,
2011-07-24 15:53:00,96.8,49.3,30.00,WSW,247,2.2,2.2,20,0.00,,,0.00,open2300-1.11,2011-07-24 21:53:00,
2011-07-24 16:03:00,97.0,47.6,29.99,NW,315,0.0,5.8,19,0.00,,,0.00,open2300-1.11,2011-07-24 22:03:00,
2011-07-24 16:13:00,97.3,47.9,30.00,WSW,247,0.0,0.0,19,0.00,,,0.00,open2300-1.11,2011-07-24 22:13:00,
2011-07-24 16:23:00,96.8,47.5,29.99,WSW,247,2.5,2.5,19,0.00,,,0.00,open2300-1.11,2011-07-24 22:23:00,
2011-07-24 16:33:00,96.1,46.8,29.99,WNW,292,0.0,2.5,19,0.00,,,0.00,open2300-1.11,2011-07-24 22:33:00,
2011-07-24 16:43:00,95.2,46.0,29.99,West,270,0.0,0.0,19,0.00,,,0.00,open2300-1.11,2011-07-24 22:43:00,
2011-07-24 16:53:00,94.8,45.8,29.98,SE,135,0.0,0.0,19,0.00,,,0.00,open2300-1.11,2011-07-24 22:53:00,
2011-07-24 17:03:00,94.1,46.9,29.99,SW,225,3.6,3.6,20,0.00,,,0.00,open2300-1.11,2011-07-24 23:03:00,
2011-07-24 17:13:00,92.8,45.9,29.98,SSW,202,0.0,3.6,20,0.00,,,0.00,open2300-1.11,2011-07-24 23:13:00,
2011-07-24 17:23:00,92.1,46.5,29.98,SE,135,3.8,3.8,21,0.00,,,0.00,open2300-1.11,2011-07-24 23:23:00,
2011-07-24 17:33:00,91.8,46.2,29.98,East,90,5.1,5.1,21,0.00,,,0.00,open2300-1.11,2011-07-24 23:33:00,
2011-07-24 17:43:00,91.6,46.0,30.00,ENE,67,6.9,8.7,21,0.00,,,0.00,open2300-1.11,2011-07-24 23:43:00,
2011-07-24 17:53:00,90.7,46.4,30.00,NE,45,8.5,10.1,22,0.00,,,0.00,open2300-1.11,2011-07-24 23:53:00,
2011-07-24 18:03:00,89.8,47.8,30.00,East,90,4.7,9.8,24,0.00,,,0.00,open2300-1.11,2011-07-25 00:03:00,
2011-07-24 18:13:00,89.4,47.5,30.00,ENE,67,8.1,8.1,24,0.00,,,0.00,open2300-1.11,2011-07-25 00:13:00,
2011-07-24 18:23:00,88.9,48.1,30.00,ESE,112,0.0,8.1,25,0.00,,,0.00,open2300-1.11,2011-07-25 00:23:00,
2011-07-24 18:33:00,88.0,47.3,30.00,East,90,0.0,3.8,25,0.00,,,0.00,open2300-1.11,2011-07-25 00:33:00,
2011-07-24 18:43:00,87.6,47.0,30.00,ENE,67,0.0,7.2,25,0.00,,,0.00,open2300-1.11,2011-07-25 00:43:00,
2011-07-24 18:53:00,87.6,48.1,30.00,SSE,157,6.0,6.0,26,0.00,,,0.00,open2300-1.11,2011-07-25 00:53:00,
2011-07-24 19:03:00,87.6,47.0,29.99,ENE,67,0.0,6.0,25,0.00,,,0.00,open2300-1.11,2011-07-25 01:03:00,
2011-07-24 19:13:00,87.6,47.0,29.99,ESE,112,0.0,0.0,25,0.00,,,0.00,open2300-1.11,2011-07-25 01:13:00,
2011-07-24 19:43:00,87.6,47.0,29.99,ESE,112,0.0,0.0,25,0.00,,,0.00,open2300-1.11,2011-07-25 01:43:00,
2011-07-24 19:53:00,87.4,46.9,29.99,ESE,112,0.0,0.0,25,0.00,,,0.00,open2300-1.11,2011-07-25 01:53:00,
2011-07-24 20:03:00,87.4,45.8,29.99,ESE,112,0.0,0.0,24,0.00,,,0.00,open2300-1.11,2011-07-25 02:03:00,
2011-07-24 20:13:00,87.1,45.5,29.99,ESE,112,0.0,0.0,24,0.00,,,0.00,open2300-1.11,2011-07-25 02:13:00,
2011-07-24 20:23:00,86.5,46.1,29.99,ESE,112,0.0,0.0,25,0.00,,,0.00,open2300-1.11,2011-07-25 02:23:00,
2011-07-24 20:33:00,85.8,45.5,29.99,East,90,0.0,0.0,25,0.00,,,0.00,open2300-1.11,2011-07-25 02:33:00,
2011-07-24 20:43:00,85.3,46.1,29.99,East,90,1.8,2.2,26,0.00,,,0.00,open2300-1.11,2011-07-25 02:43:00,
2011-07-24 20:53:00,84.7,45.7,29.99,East,90,0.0,3.4,26,0.00,,,0.00,open2300-1.11,2011-07-25 02:53:00,
2011-07-24 21:03:00,84.4,45.4,29.99,ENE,67,0.0,4.7,26,0.00,,,0.00,open2300-1.11,2011-07-25 03:03:00,
2011-07-24 21:13:00,84.2,45.2,29.99,East,90,0.0,1.3,26,0.00,,,0.00,open2300-1.11,2011-07-25 03:13:00,
2011-07-24 21:23:00,84.0,45.0,30.00,ESE,112,5.1,5.1,26,0.00,,,0.00,open2300-1.11,2011-07-25 03:23:00,
2011-07-24 21:33:00,83.8,44.9,30.00,ENE,67,0.0,5.1,26,0.00,,,0.00,open2300-1.11,2011-07-25 03:33:00,
2011-07-24 21:43:00,83.5,44.6,30.01,SSE,157,5.8,5.8,26,0.00,,,0.00,open2300-1.11,2011-07-25 03:43:00,
2011-07-24 21:53:00,83.3,45.5,30.01,ENE,67,6.3,6.3,27,0.00,,,0.00,open2300-1.11,2011-07-25 03:53:00,
2011-07-24 22:03:00,83.1,46.4,30.01,East,90,0.9,6.7,28,0.00,,,0.00,open2300-1.11,2011-07-25 04:03:00,
2011-07-24 22:23:00,83.1,46.4,30.02,East,90,0.0,3.8,28,0.00,,,0.00,open2300-1.11,2011-07-25 04:23:00,
2011-07-24 22:33:00,82.9,47.3,30.02,South,180,0.0,9.2,29,0.00,,,0.00,open2300-1.11,2011-07-25 04:33:00,
2011-07-24 22:43:00,83.1,47.4,30.03,SSE,157,0.0,1.1,29,0.00,,,0.00,open2300-1.11,2011-07-25 04:43:00,
2011-07-24 22:53:00,83.1,47.4,30.03,South,180,0.0,3.1,29,0.00,,,0.00,open2300-1.11,2011-07-25 04:53:00,
2011-07-24 23:03:00,83.1,46.4,30.03,South,180,0.0,0.0,28,0.00,,,0.00,open2300-1.11,2011-07-25 05:03:00,
2011-07-24 23:13:00,82.9,46.2,30.04,South,180,0.0,1.3,28,0.00,,,0.00,open2300-1.11,2011-07-25 05:13:00,
2011-07-24 23:23:00,82.6,45.9,30.04,South,180,0.0,0.0,28,0.00,,,0.00,open2300-1.11,2011-07-25 05:23:00,
2011-07-24 23:33:00,82.2,46.7,30.04,SSW,202,0.9,3.6,29,0.00,,,0.00,open2300-1.11,2011-07-25 05:33:00,
2011-07-24 23:43:00,82.2,46.7,30.04,ESE,112,3.4,3.4,29,0.00,,,0.00,open2300-1.11,2011-07-25 05:43:00,
2011-07-24 23:53:00,82.0,47.5,30.04,East,90,3.8,5.1,30,0.00,,,0.00,open2300-1.11,2011-07-25 05:53:00,